Location: Bluff Heights
(33.7692°N, 118.1592°W)
Time: 23:27:14
(UTC+00:00)

Vanguard 2 - All Passes

Search period start: 28 July 2021 00:00
Search period end: 07 August 2021 00:00
Orbit: 552 x 2937 km, 32.9° (Epoch: 28 July)

Date Brightness Start Highest point End Pass type
(mag) Time Alt. Az. Time Alt. Az. Time Alt. Az.
28 Jul - 11:17:17 10° SSE 11:18:22 11° SE 11:19:29 10° SE visible
28 Jul - 13:21:22 10° WSW 13:25:42 54° SSE 13:32:09 10° E daylight
28 Jul - 15:28:34 10° W 15:34:20 85° S 15:44:09 10° E daylight
28 Jul - 17:36:16 10° W 17:44:00 65° SSW 17:57:09 10° ESE daylight
28 Jul - 19:45:13 10° W 19:54:37 36° SSW 20:08:09 10° SSE daylight
28 Jul - 22:00:18 10° WSW 22:05:50 13° SW 22:11:58 10° SSW daylight
29 Jul - 11:32:57 10° SSW 11:35:45 18° SSE 11:38:55 10° ESE visible
29 Jul - 13:38:53 10° WSW 13:43:21 68° SSE 13:50:07 10° E daylight
29 Jul - 15:46:15 10° W 15:52:09 82° S 16:02:14 10° E daylight
29 Jul - 17:54:03 10° W 18:01:51 55° SSW 18:14:47 10° SE daylight
29 Jul - 20:03:41 10° W 20:12:29 27° SSW 20:24:31 10° SSE daylight
30 Jul - 11:49:46 10° SSW 11:53:13 28° SSE 11:57:17 10° E visible
30 Jul - 13:56:31 10° WSW 14:01:04 78° S 14:08:06 10° E daylight
30 Jul - 16:03:57 10° W 16:09:57 75° S 16:20:14 10° ESE daylight
30 Jul - 18:11:56 10° W 18:19:43 45° SSW 18:32:09 10° SE daylight
30 Jul - 20:22:44 10° WSW 20:30:25 20° SSW 20:40:12 10° S daylight
31 Jul - 12:07:00 10° SW 12:10:44 40° SSE 12:15:22 10° E visible
31 Jul - 14:14:11 10° W 14:18:49 83° S 14:26:05 10° E daylight
31 Jul - 16:21:39 10° W 16:27:46 66° SSW 16:38:08 10° ESE daylight
31 Jul - 18:30:00 10° W 18:37:34 35° SSW 18:49:11 10° SE daylight
31 Jul - 20:43:05 10° WSW 20:48:22 14° SSW 20:54:30 10° S daylight
01 Aug - 10:18:52 10° S 10:20:45 13° SSE 10:22:37 10° ESE visible
01 Aug - 12:24:27 10° WSW 12:28:21 55° SSE 12:33:18 10° E visible
01 Aug - 14:31:52 10° W 14:36:36 82° S 14:44:04 10° E daylight
01 Aug - 16:39:24 10° W 16:45:33 55° SSW 16:55:51 10° ESE daylight
01 Aug - 18:48:19 10° W 18:55:28 27° SSW 19:05:46 10° SSE daylight
02 Aug - 10:35:12 10° SSW 10:38:18 21° SSE 10:41:22 10° ESE visible
02 Aug - 12:42:03 10° WSW 12:46:01 69° S 12:51:11 10° E daylight
02 Aug - 14:49:33 10° W 14:54:22 76° S 15:02:02 10° ESE daylight
02 Aug - 16:57:14 10° W 17:03:23 44° SSW 17:13:20 10° SE daylight
02 Aug - 19:07:10 10° WSW 19:13:24 19° SSW 19:21:41 10° S daylight
03 Aug - 10:52:16 10° SW 10:55:53 31° SSE 10:59:31 10° E visible
03 Aug - 12:59:42 10° W 13:03:44 79° S 13:09:04 10° E daylight
03 Aug - 15:07:15 10° W 15:12:08 66° SSW 15:19:55 10° ESE daylight
03 Aug - 17:15:13 10° W 17:21:13 34° SSW 17:30:30 10° SE daylight
03 Aug - 19:27:14 10° SW 19:31:23 13° SSW 19:36:17 10° S daylight
04 Aug - 09:03:56 10° S 09:05:37 12° SSE 09:07:09 10° SE night (unlit)
04 Aug - 11:09:37 10° SW 11:13:31 44° SSE 11:17:27 10° E visible
04 Aug - 13:17:25 10° W 13:21:28 82° S 13:26:58 10° E daylight
04 Aug - 15:24:59 10° W 15:29:54 54° SSW 15:37:40 10° ESE daylight
04 Aug - 17:33:28 10° WSW 17:39:06 25° SSW 17:47:13 10° SSE daylight
05 Aug - 09:19:54 10° SSW 09:23:18 19° SSE 09:26:12 10° ESE night (unlit)
05 Aug - 11:27:12 10° WSW 11:31:10 60° SSE 11:35:17 10° E visible
05 Aug - 13:35:07 10° W 13:39:13 78° S 13:44:51 10° E daylight
05 Aug - 15:42:47 10° W 15:47:39 42° SSW 15:55:12 10° SE daylight
05 Aug - 17:52:14 10° WSW 17:57:01 18° SSW 18:03:18 10° SSE daylight
06 Aug - 09:36:48 10° SW 09:40:58 28° SSE 09:44:26 10° E visible
06 Aug - 11:44:53 10° WSW 11:48:52 73° S 11:53:06 10° E visible
06 Aug - 13:52:50 10° W 13:56:57 67° S 14:02:42 10° ESE daylight
06 Aug - 16:00:44 10° W 16:05:28 31° SSW 16:12:27 10° SE daylight
06 Aug - 18:12:26 10° SW 18:14:58 11° SSW 18:17:49 10° S daylight
